Regional Weather Roundup
Issued by NWS

Home | Current Version | Previous Version | Text Only | Print | Product List | Glossary On
Versions: 1 2 3 4 5 6 7 8 9 10 11 12 13 14 15 16 17 18 19 20 21 22 23 24 25 26 27 28 29 30 31 32 33 34 35 36 37 38 39 40 41 42 43 44 45 46 47 48 49 50
000
ASHW40 PHFO 041212
RWRHI

WEATHER ROUNDUP FOR HAWAII
NATIONAL WEATHER SERVICE HONOLULU HI
200 AM HST WED MAY 04 2016

THIS IS AN AUTOMATED REPORT THAT HAS NOT BEEN QUALITY CONTROLLED.

NOTE..."FAIR" INDICATES FEW OR NO CLOUDS BELOW 12,000 FEET WITH NO
SIGNIFICANT WEATHER AND/OR OBSTRUCTIONS TO VISIBILITY.

* - THESE SITES REPORT LIMITED FIELDS

HIZ001>004-041300-
KAUAI-NIIHAU-

CITY           SKY/WX    TMP DP  RH WIND       PRES   REMARKS
LIHUE APT      CLOUDY    76  69  79 NE15      30.12F
PORT ALLEN*      N/A     72 N/A N/A NE8         N/A
POIPU*           N/A     72 N/A N/A NE8G17      N/A
PRINCEVILLE*     N/A     70 N/A N/A E8G18       N/A
KOKOLE POINT*  NOT AVBL
MOLOAA DAIRY*    N/A     72  70  94 E5G16       N/A
WAIMEA HTS*    NOT AVBL
PUU OPAE*      NOT AVBL
PUU LUA*       NOT AVBL
MAKAHA RIDGE*  NOT AVBL
$$

HIZ005>011-041300-
OAHU-

CITY           SKY/WX    TMP DP  RH WIND       PRES   REMARKS
HONOLULU       PTCLDY    74  66  76 N3        30.08F
KALAELOA       CLEAR     70  66  87 NE5       30.09F
KANEOHE MCB    PTCLDY    75  67  76 E7        30.06F
WHEELER FIELD  FAIR      68  66  92 NE5       30.09S
BELLOWS*       NOT AVBL
KAHUKU*        NOT AVBL
WHEELER*       NOT AVBL
WAIANAE HARBOR NOT AVBL
DILLINGHAM*      N/A     81  77  89 MISG        N/A
KAHUKU TRN*      N/A     70  66  88 CALM        N/A
KAWAILOA*        N/A     68  64  88 E7G16       N/A
KII*             N/A     73  70  88 NE15        N/A
MAKUA RANGE*     N/A     81  70  69 E5          N/A
OAHU FOREST NW NOT AVBL
SCHOFIELD BRK*   N/A     66  64  94 MISG        N/A
SCHOFIELD S*   NOT AVBL
WAIANAE VLY*   NOT AVBL
KUAOKALA*      NOT AVBL
HONOULIUULI*   NOT AVBL
MOKUOLOE IS*   NOT AVBL
PALEHUA*       NOT AVBL
WAIAWA PHB*    NOT AVBL
$$

HIZ012>013-041300-
MOLOKAI-

CITY           SKY/WX    TMP DP  RH WIND       PRES   REMARKS
MOLOKAI AIRPT  CLEAR     72  64  76 N6        30.08F
KALAUPAPA      NOT AVBL
MAKAPULAPAI*   NOT AVBL
MOLOKAI 1*     NOT AVBL
PUU ALII*      NOT AVBL
$$

HIZ016-041300-
KAHOOLAWE-

CITY           SKY/WX    TMP DP  RH WIND       PRES   REMARKS
KAHOOLAWE*     NOT AVBL
HAKIOAWA*      NOT AVBL
HONOKANAIA*      N/A     74  64  69 NE9G17    30.02F
KANELOA*         N/A     72  63  73 E16G26    30.13F
KEALIALALO*    NOT AVBL
LUA MAKIKA*    NOT AVBL
$$

HIZ014>015-041300-
LANAI-

CITY           SKY/WX    TMP DP  RH WIND       PRES   REMARKS
LANAI CITY     FAIR      68  63  84 N8        30.12F
LANAI 1*       NOT AVBL
$$

HIZ017>028-041300-
MAUI-

CITY           SKY/WX    TMP DP  RH WIND       PRES   REMARKS
KAHULUI        CLEAR     71  62  73 E3        30.06F
KAPALUA-W MAUI NOT AVBL
HANA AIRPORT   NOT AVBL
HANA*            N/A     73 N/A N/A E3G9        N/A
HALEAKALA SUMM   N/A     46  30  53 E22         N/A
MAALAEA BAY*   NOT AVBL
HALEAKALA*     NOT AVBL
KAUPO GAP*     NOT AVBL
KULA 1*          N/A     48  37  66 E3          N/A
$$

HIZ023>026-041300-
BIG ISLAND OF HAWAII COAST AND LOWER SLOPES-

CITY           SKY/WX    TMP DP  RH WIND       PRES   REMARKS
KAILUA KONA    CLEAR     75  65  70 E6        30.03F
HILO           MOCLDY    71  59  65 S3        30.09F
HONOKAA*         N/A     66 N/A N/A VRB1        N/A
KAWAIHAE MWT*    N/A     77 N/A N/A SE12G20     N/A
KAWAIHAE*      NOT AVBL
SOUTH POINT*     N/A     68 N/A N/A N9G15       N/A
UPOLU AIRPORT*   N/A    N/A N/A N/A NE16G24     N/A
KAMUELA*       SUNNY     55  54  94 CALM      30.15S
HAKALAU*         N/A     45  41  87 W3          N/A
KALOKO-HONOKO* NOT AVBL
PALI 2*          N/A     79  68  69 S9G17       N/A
KEALAKOMO*       N/A     75  63  64 N14G22      N/A
KAUPULEHU*     NOT AVBL
KAPAPALA*        N/A     58  53  82 N3G9        N/A
LOWER KAHUKU*  NOT AVBL
PUHE CS*       NOT AVBL
PUHO CS*       NOT AVBL
PTA KEAMUKU*     N/A     55  52  88 CALM        N/A
WAIKOLOA*      NOT AVBL
$$

HIZ027>028-041300-
BIG ISLAND OF HAWAII INTERIOR AND SUMMMITS-

CITY           SKY/WX    TMP DP  RH WIND       PRES   REMARKS
BRADSHAW FIELD CLOUDY    47  38  71 SE5       30.34F
MK VISITOR CEN   N/A     52  23  32 E10         N/A
MAUNA KEA*       N/A     37  14  38 E12         N/A  WCI  30
MAUNA LOA*       N/A    N/A N/A N/A MISG        N/A
MAUNA LOA 1*   NOT AVBL
PTA KIPUKA*      N/A     52  50  93 S5G13       N/A
PTA RANGE 17*    N/A     55  45  67 E15G26      N/A
PTA WEST*        N/A     70  57  64 SE9G16      N/A
NENE CABIN*    NOT AVBL
AHUMOA*        NOT AVBL
PTA PORTABLE*  NOT AVBL
PUU MALI*        N/A     54  39  58 S6G12       N/A
$$

HIC003-041300-
NORTHWEST ISLANDS-

CITY           SKY/WX    TMP DP  RH WIND       PRES   REMARKS
MIDWAY ISLAND  CLOUDY    72  64  78 N9        30.16S
MIDWAY NOS*    NOT AVBL
FRENCH FRIGATE NOT AVBL
$$

PHZ110>124-180-041300-
BUOY REPORTS

STATION/POSITION TIME  TEMP    WIND        PRES    WAVE   SWELL
                       AIR SEA DIR/SP/G            HT/PER HT/DIR
                 (UTC) (F)     (DEG/KT/KT) (MB)    (FT/S) (FT/D)
BUOY 51001       1100   77 78   80/ 12/ 14 1019.1F
BUOY 51101       1150   75 75   90/ 14/ 16 1020.6F   6/16   5/290
BUOY 51100       NOT AVBL
BUOY 51002       1150   77 78   80/ 17/ 21 1015.9F   7/ 7   3/100
BUOY 51003       1150   77 78   70/  8/ 12 1017.5F   6/ 7   7/ 70
BUOY 51004       1150   79 79   70/ 17/ 21 1016.4F   7/ 7   3/360
BARBERS PT BUOY  NOT AVBL
WAIMEA BAY BUOY  1104      78                N/A     6/ 8   2/330
KAILUA BAY BUOY  1111      78                N/A     7/ 8   2/140
LANAI BUOY       1115      79                N/A     2/14   2/200
BARBERS PT 2     1103      79                N/A     4/ 8   2/180
PAUWELA MAUI     1109      77                N/A     6/ 8   2/ 10
HILO             1112      78                N/A     7/ 8   2/ 10
KANEOHE BAY BUOY 1106      77                N/A     7/ 8
HANALEI KAUAI    NOT AVBL
KAHULUI HARBOR   1100   75 78   40/  9/ 13 1018.4F
HONOLULU HARBOR  1100   76 78  300/  2/  4 1019.5F
KILO NALU        NOT AVBL
HILO HARBOR      1100   71 77  200/  4/  6 1018.8F
MOKUOLOE         1100   75 79   80/  7/ 10 1019.2F
NAWILIWILI       1100   73 80   50/ 11/ 14 1019.8F
WHOTS BUOY       NOT AVBL
BUOY 51028       NOT AVBL
$$

......................KEY........................................
  SKY/WX - SKY CONDITIONS/PRESENT WEATHER
  TMP    - TEMPERATURE IN FAHRENHEIT
  DWPT   - DEWPOINT IN FAHRENHEIT
  RH     - RELATIVE HUMIDITY IN PERCENT
  WIND   - DIRECTION AND SPEED /MPH FOR ISLANDS...KTS FOR BUOYS/
  PRES   - MEAN SEA LEVEL PRESSURE IN INCHES OF HG
  VSB    - VISIBILITY IN MILES
  HX     - HEAT INDEX
  WCI    - WIND CHILL INDEX
  VRB    - VARIABLE WIND DIRECTION
  N/A    - NOT AVAILABLE



USA.gov is the U.S. government's official web portal to all federal, state and local government web resources and services.